Location: Engelmannsreuth
(49.8125°N, 11.6497°E)
Time: 04:02:51
(UTC+00:00)

Meteor 2-3 Rocket - Pass Details

Date: 17 February 2020
Orbit: 842 x 885 km, 81.3° (Epoch: 09 April)

Event Time Altitude Azimuth Distance (km) Brightness Sun altitude
Rises 04:57:24 0° 341° (NNW) 3,461 6.7 -14.1°
Reaches altitude 10° 05:00:00 10° 333° (NNW) 2,526 5.9 -13.7°
Maximum altitude 05:05:08 35° 270° (W) 1,380 4.3 -12.8°
Drops below altitude 10° 05:10:18 10° 206° (SSW) 2,532 6.0 -12.0°
Sets 05:12:55 0° 198° (SSW) 3,471 6.8 -11.6°
